Weather History for GMME - July, 2013

Change the Weather History Date:

Wednesday, July 17, 2013

  Actual Average Record
Temperature  
Mean Temperature 68 °F -  
Max Temperature 79 °F 78 °F 102 °F (2012)
Min Temperature 57 °F 63 °F 55 °F (2001)
Cooling Degree Days 3    
Growing Degree Days 18 (Base 50)    
Moisture  
Dew Point 63 °F    
Average Humidity 80    
Maximum Humidity 94    
Minimum Humidity 56    
Precipitation  
Precipitation 0.00 in 0.00 in - ()
Sea Level Pressure  
Sea Level Pressure 30.06 in    
Wind  
Wind Speed 3 mph ()    
Max Wind Speed 18 mph    
Max Gust Speed -    
Visibility 3.4 miles    
Events      
Averages and records for this station are not official NWS values.
T = Trace of Precipitation, MM = Missing Value Source: Averaged Metar Reports

Daily Weather History Graph

Daily Weather History Graph

Search for Another Location

Airport or City:

Trip Planner

Search our weather history database for the weather conditions in past years. The results will help you decide how hot, cold, wet, or windy it might be!

Date:

Astronomy

Jul. 17, 2013 Rise Set
Actual Time 5:28 AM WET 7:38 PM WET
Civil Twilight 4:59 AM WET 8:06 PM WET
Nautical Twilight 4:24 AM WET 8:40 PM WET
Astronomical Twilight 3:47 AM WET 9:18 PM WET
Moon 2:15 PM WET (7/17) 12:20 AM WET (7/17)
Length of Visible Light 15h 06m
Length of Day
14h 09m
Waxing Gibbous, 65% of the Moon is Illuminated
Jul 17
Waxing Gibbous
Jul 22
Full
Jul 29
Last Quarter
Aug 6
New
Aug 14
First Quarter

Hourly Weather History & Observations

Time (WET) Temp. Dew Point Humidity Pressure Visibility Wind Dir Wind Speed Gust Speed Precip Events Conditions
12:00 AM 65 °F 62 °F 85% 30.09 in 3 mi Calm Calm - -   Partly Cloudy
12:00 AM 64.4 °F 60.8 °F 88% 30.09 in 3.1 mi Calm Calm - N/A   Scattered Clouds
12:30 AM 64.4 °F 60.8 °F 88% 30.06 in 3.1 mi Calm Calm - N/A   Scattered Clouds
1:00 AM 62.6 °F 59.0 °F 88% 30.06 in 3.1 mi Calm Calm - N/A   Scattered Clouds
1:04 AM 60.8 °F 59.0 °F 94% 30.06 in 1.9 mi Calm Calm - N/A   Scattered Clouds
1:30 AM 60.8 °F 59.0 °F 94% 30.06 in 1.9 mi Calm Calm - N/A   Scattered Clouds
2:00 AM 64.4 °F 60.8 °F 88% 30.06 in 1.9 mi Calm Calm - N/A   Scattered Clouds
2:30 AM 60.8 °F 59.0 °F 94% 30.04 in 1.9 mi Calm Calm - N/A   Scattered Clouds
3:00 AM 60 °F 57 °F 88% 30.07 in 2 mi Calm Calm - -   Mist
3:00 AM 59.0 °F 57.2 °F 94% 30.06 in 1.9 mi Calm Calm - N/A   Scattered Clouds
3:30 AM 59.0 °F 55.4 °F 88% 30.06 in 1.9 mi Calm Calm - N/A   Scattered Clouds
4:00 AM 60.8 °F 59.0 °F 94% 30.04 in 1.2 mi Calm Calm - N/A   Scattered Clouds
4:30 AM 60.8 °F 59.0 °F 94% 30.06 in 1.2 mi Calm Calm - N/A   Scattered Clouds
5:00 AM 60.8 °F 59.0 °F 94% 30.06 in 1.2 mi Calm Calm - N/A   Scattered Clouds
5:30 AM 60.8 °F 59.0 °F 94% 30.06 in 1.2 mi Calm Calm - N/A   Scattered Clouds
6:00 AM 62 °F 60 °F 91% 30.07 in 1 mi Calm Calm - -   Mist
6:00 AM 62.6 °F 60.8 °F 94% 30.06 in 1.2 mi Calm Calm - N/A   Scattered Clouds
6:30 AM 62.6 °F 60.8 °F 94% 30.06 in 1.2 mi Calm Calm - N/A   Scattered Clouds
7:00 AM 66.2 °F 64.4 °F 94% 30.06 in 1.2 mi Calm Calm - N/A   Scattered Clouds
7:30 AM 69.8 °F 64.4 °F 83% 30.06 in 2.5 mi Calm Calm - N/A   Scattered Clouds
8:00 AM 71.6 °F 64.4 °F 78% 30.09 in 2.5 mi Calm Calm - N/A   Scattered Clouds
8:30 AM 73.4 °F 62.6 °F 69% 30.09 in 3.1 mi Calm Calm - N/A   Scattered Clouds
9:00 AM 74 °F 64 °F 63% 30.09 in 3 mi Calm Calm - -   Partly Cloudy
9:00 AM 73.4 °F 64.4 °F 73% 30.09 in 3.1 mi Calm Calm - N/A   Scattered Clouds
9:30 AM 73.4 °F 64.4 °F 73% 30.09 in 3.1 mi Calm Calm - N/A   Scattered Clouds
10:00 AM 73.4 °F 64.4 °F 73% 30.09 in 3.1 mi WNW 6.9 mph - N/A   Scattered Clouds
10:30 AM 77.0 °F 64.4 °F 65% 30.09 in - WNW 9.2 mph - N/A   Unknown
11:00 AM 75.2 °F 64.4 °F 69% 30.09 in 5.0 mi WNW 8.1 mph - N/A   Scattered Clouds
11:30 AM 77.0 °F 64.4 °F 65% 30.06 in 5.0 mi WNW 9.2 mph - N/A   Scattered Clouds
12:00 PM 78 °F 65 °F 56% 30.07 in 5 mi NW 17.9 mph - -   Partly Cloudy
12:00 PM 78.8 °F 64.4 °F 61% 30.06 in 5.0 mi NW 9.2 mph - N/A   Scattered Clouds
12:30 PM 77.0 °F 64.4 °F 65% 30.06 in 5.0 mi WNW 10.4 mph - N/A   Scattered Clouds
1:00 PM 77.0 °F 64.4 °F 65% 30.06 in 5.0 mi NW 10.4 mph - N/A   Scattered Clouds
1:30 PM 77.0 °F 66.2 °F 69% 30.06 in 5.0 mi WNW 10.4 mph - N/A   Scattered Clouds
2:00 PM 77.0 °F 64.4 °F 65% 30.04 in 5.0 mi WNW 11.5 mph - N/A   Scattered Clouds
2:30 PM 77.0 °F 64.4 °F 65% 30.04 in 5.0 mi NW 10.4 mph - N/A   Scattered Clouds
3:00 PM 75.2 °F 66.2 °F 73% 30.04 in 5.0 mi WNW 9.2 mph - N/A   Scattered Clouds
3:30 PM 77.0 °F 66.2 °F 69% 30.04 in 5.0 mi WNW 10.4 mph - N/A   Scattered Clouds
4:00 PM 77.0 °F 66.2 °F 69% 30.04 in 5.0 mi NW 11.5 mph - N/A   Scattered Clouds
4:30 PM 77.0 °F 66.2 °F 69% 30.04 in 5.0 mi NNW 10.4 mph - N/A   Scattered Clouds
5:00 PM 75.2 °F 66.2 °F 73% 30.04 in 5.0 mi NW 10.4 mph - N/A   Scattered Clouds
5:30 PM 75.2 °F 66.2 °F 73% 30.04 in - WNW 9.2 mph - N/A   Unknown
6:00 PM 74 °F 65 °F 68% 30.03 in 5 mi NW 8.1 mph - -   Partly Cloudy
6:00 PM 73.4 °F 66.2 °F 78% 30.04 in 5.0 mi NW 8.1 mph - N/A   Unknown
6:30 PM 73.4 °F 66.2 °F 78% 30.04 in 5.0 mi WNW 8.1 mph - N/A   Unknown
7:00 PM 71.6 °F 66.2 °F 83% 30.04 in 5.0 mi NW 5.8 mph - N/A   Unknown
7:30 PM 71.6 °F 66.2 °F 83% 30.04 in 5.0 mi NW 5.8 mph - N/A   Unknown
8:00 PM 71.6 °F 66.2 °F 83% 30.06 in 5.0 mi West 4.6 mph - N/A   Unknown
8:30 PM 71.6 °F 66.2 °F 83% 30.06 in 5.0 mi Calm Calm - N/A   Unknown
9:00 PM 72 °F 66 °F 76% 30.08 in 5 mi WNW 3.5 mph - -   Mostly Cloudy
9:00 PM 71.6 °F 66.2 °F 83% 30.06 in 5.0 mi WNW 3.5 mph - N/A   Unknown
9:30 PM 71.6 °F 66.2 °F 83% 30.06 in 3.1 mi WNW 4.6 mph - N/A   Mostly Cloudy
10:00 PM 71.6 °F 66.2 °F 83% 30.09 in 3.1 mi Calm Calm - N/A   Mostly Cloudy
10:30 PM 69.8 °F 64.4 °F 83% 30.09 in 3.1 mi Calm Calm - N/A   Scattered Clouds
11:00 PM 68.0 °F 64.4 °F 88% 30.06 in 3.1 mi Calm Calm - N/A   Scattered Clouds
11:30 PM 66.2 °F 64.4 °F 94% 30.06 in 3.1 mi Calm Calm - N/A   Scattered Clouds